Back to catalog

STARLINK-31636

AliveCommunicationsVLEO
NORAD 59747·PAYLOAD·🇺🇸 United States

Launched May 13, 2024 from Cape Canaveral Space Force Station

Loading…

Next Passes (next 24 hours)

TLE

FreshSource: CelesTrak SupGP

Epoch: Sep 14, 2026, 22:11 UTC

1 59747C 24090T   26257.92479167 -.00006803  00000+0 -24637-3 0  2574
2 59747  43.0003 194.6224 0001089 263.1844  79.8132 15.27588254    16

Track STARLINK-31636 in real time with AllMySat

Download on the App Store